Погода в Абдулино

Россия / Оренбургская область     53°40′40″N   53°38′50″E
темп.,
°C
ветер,
м/с
пор.,
м/с
влажн.,
%
обл.,
%
осадки,
мм/ч
давл.,
гПа
погр.,
м
9 мая, вс
вс923:00+13всв22634 0.0 101620
02:00+11вюв337727 0.0 101655
05:00+11юв22735 0.0 101612
08:00+14вюв12625 0.0 1016108
11:00+19ююв33404 0.0 10161037
14:00+21ю22336 0.0 10162396
17:00+22ю223119 0.0 10152498
20:00+20ююв224488 0.0 101633
10 мая, пн
пн1023:00+16вюв364925 0.0 101791
02:00+14вюв35525 0.0 101773
05:00+13вюв22591 0.0 101813
08:00+16вюв245659 0.0 1019127
11:00+20вюв4441100 0.0 10191299
14:00+22вюв443548 0.0 10202177
17:00+23в443489 0.0 10202377
20:00+20всв3649100 0.0 1021164
11 мая, вт
вт1123:00+17вюв3761100 0.0 1022128
02:00+15в335993 0.0 102352
05:00+14вюв3563100 0.0 102478
08:00+16вюв255899 0.0 1025159
11:00+21юв3341100 0.0 1026727
14:00+23вюв333318 0.0 10262383
17:00+23в4432100 0.0 10262479
20:00+20в3650100 0.0 1027133
12 мая, ср
ср1223:00+17вюв355896 0.0 102875
02:00+15в226144 0.0 102812
05:00+14в226098 0.0 102911
08:00+16в245478 0.0 1029166
11:00+21вюв454182 0.0 1029817
14:00+23юв333397 0.0 10291804
17:00+24вюв333291 0.0 10282128
20:00+21в234788 0.0 102866
13 мая, чт
чт1323:00+17в22553 0.0 102822
02:00+15в37670 0.0 1028105
05:00+14в22640 0.0 102820
08:00+17всв23541 0.0 1028142
11:00+22в22435 0.0 1028942
14:00+24ююв22360 0.0 10272018
17:00+25юв22350 0.0 10262084
20:00+23вюв22475 0.0 102641